Tracking 27380 objects as of 6-Jun-2023
HD Live streaming from Space Station
objects crossing your sky now

STARLINK-1656

Track STARLINK-1656 now!
10-day predictions
STARLINK-1656 is classified as:


NORAD ID: 46353
Int'l Code: 2020-062AE
Perigee: 553.4 km
Apogee: 555.3 km
Inclination: 53.1 °
Period: 95.6 minutes
Semi major axis: 6925 km
RCS: Unknown
Launch date: September 3, 2020
Source: United States (US)
Launch site: AIR FORCE EASTERN TEST RANGE (AFETR)
Your satellite tracking list
Your tracking list is empty




NASA's NSSDC Master Catalog

Two Line Element Set (TLE):
1 46353U 20062AE  23157.46399866 -.00002219  00000-0 -13014-3 0  9998
2 46353  53.0542 218.2380 0001390 112.8482 247.2654 15.06390227152491
Source of the keplerian elements: AFSPC